Regional Weather Roundup
Issued by NWS

Home | Current Version | Previous Version | Text Only | Print | Product List | Glossary On
Versions: 1 2 3 4 5 6 7 8 9 10 11 12 13 14 15 16 17 18 19 20 21 22 23 24 25 26
000
ASUS45 KTFX 281510
RWRMT
MONTANA REGIONAL WEATHER ROUNDUP
NATIONAL WEATHER SERVICE GREAT FALLS MT
900 AM MDT FRI JUL 28 2017

NOTE: "FAIR" INDICATES FEW OR NO CLOUDS BELOW 12000 FEET WITH NO
SIGNIFICANT WEATHER AND/OR OBSTRUCTIONS TO VISIBILITY.

MTZ001>007-043-281600-
WEST OF THE DIVIDE

CITY           SKY/WX    TMP DP  RH WIND       PRES   REMARKS
KALISPELL      SUNNY     68  51  54 VRB3      30.08R
MISSOULA       SUNNY     65  50  58 CALM      30.13S
BUTTE          SUNNY     62  46  55 N5        30.26S
MULLAN PASS    MOSUNNY   63  35  35 VRB3      30.24R
ANACONDA         N/A     66  48  52 SE7       30.21S
DEER LODGE       N/A     63  52  67 CALM      30.22S
EUREKA           N/A     70  45  40 MISG      30.05S
HAMILTON         N/A     68  52  56 S6        30.14S
LIBBY            N/A     64  43  45 CALM      30.06S
$$

MTZ008-052>055-281600-
SOUTHWEST MONTANA

CITY           SKY/WX    TMP DP  RH WIND       PRES   REMARKS
BOZEMAN        SUNNY     67  51  56 NE3       30.19F
DILLON         SUNNY     61  50  67 SW9       30.24S
W YELLOWSTONE  CLOUDY    48  48 100 CALM      30.35F
ENNIS          SUNNY     63  46  55 CALM      30.29F
THREE FORKS      N/A     66  50  56 CALM      30.16F
$$

MTZ009-010-012-014-046-048-049-054-281600-
EAST SLOPES AND CENTRAL MONTANA

CITY           SKY/WX    TMP DP  RH WIND       PRES   REMARKS
CUT BANK       SUNNY     66  54  65 NW13      30.12S
GREAT FALLS    SUNNY     76  41  28 N6        30.10S
MALMSTROM AFB  SUNNY     77  42  28 NW3       30.10R
HELENA         SUNNY     72  50  45 CALM      30.14S
CHOTEAU          N/A     68  54  60 N10       30.15S
$$

MTZ011-013-016-021-045-047-050-051-281600-
NORTH CENTRAL MONTANA

CITY           SKY/WX    TMP DP  RH WIND       PRES   REMARKS
HAVRE          SUNNY     73  57  57 W13       30.03R
LEWISTOWN      SUNNY     76  44  32 NW10      30.12R
N BAR RANCH      N/A     79  43  27 NW23G30   30.13R
CHINOOK          N/A     72  54  53 W12       29.99S
$$

MTZ017>020-022>027-061-062-281600-
NORTHEAST MONTANA

CITY           SKY/WX    TMP DP  RH WIND       PRES   REMARKS
GLASGOW        CLOUDY    72  55  55 SE10      29.97R
JORDAN           N/A     76  55  48 SW5       29.98R
SIDNEY         SUNNY     72  61  68 CALM      29.99F
WOLF POINT     SUNNY     73  56  54 VRB3      29.98F
MALTA          SUNNY     75  57  53 CALM      29.97R
PLENTYWOOD       N/A     73  59  60 SE7       30.01S
POPLAR           N/A     72  57  60 SE6       29.99S
$$

MTZ028>42-056>058-281600-
SOUTHCENTRAL AND SOUTHEAST MONTANA

CITY           SKY/WX    TMP DP  RH WIND       PRES   REMARKS
BAKER          SUNNY     71  57  61 S9        30.03S
BILLINGS       MOSUNNY   74  50  42 SW12      30.07R
LIVINGSTON     SUNNY     75  46  35 SW15      30.16F
MILES CITY     SUNNY     70  54  56 VRB3      30.00S
BIG TIMBER     SUNNY     73  46  38 W20       30.17R
FORSYTH          N/A     75  57  53 CALM      30.00S
LAUREL           N/A     75  50  41 S6        30.06F
$$

REGIONAL REPORTS...DAKOTAS

CITY           SKY/WX    TMP DP  RH WIND       PRES   REMARKS
WILLISTON      SUNNY     74  62  66 S6        30.00F
MINOT          SUNNY     80  61  52 SE8       30.02S
DICKINSON      SUNNY     75  60  59 S16       30.02S
BEACH            N/A     70  61  73 S14       30.05R
CROSBY           N/A     75  63  64 S10       30.01S
TIOGA            N/A     73  66  78 S12       30.04F
WATFORD CITY     N/A     77  57  50 S15       30.00F
BISMARCK       PTSUNNY   77  63  61 SE12      30.05S
GRAND FORKS    MOSUNNY   77  64  64 S5        30.08F
FARGO          SUNNY     77  62  59 S6        30.09S
BUFFALO SD       N/A     73  59  61 S12       29.98F
RAPID CITY     SUNNY     74  60  61 CALM      30.06S
$$

REGIONAL REPORTS...WYOMING/IDAHO/WASHINGTON

CITY           SKY/WX    TMP DP  RH WIND       PRES   REMARKS
GILLETTE         N/A     72  61  68 MISG      30.10R
SHERIDAN       CLOUDY    78  51  38 W3        30.10R
BUFFALO WY     SUNNY     75  51  43 N9        30.16R
CODY           SUNNY     75  47  36 VRB3      30.19S
YELLOWSTONE LA   N/A     53  49  86 E3        30.42S
IDAHO FALLS    SUNNY     60  54  80 N3        30.23R
BOISE          MOSUNNY   74  47  38 CALM      30.05S
SPOKANE        MOSUNNY   68  43  40 S9        30.05R
$$

REGIONAL REPORTS...ALBERTA

CITY           SKY/WX    TMP DP  RH WIND       PRES   REMARKS
EDMONTON       SUNNY     61  55  82 W3        30.01R
CALGARY        PTSUNNY   66  48  52 SW5       30.09R
LETHBRIDGE     MOSUNNY   68  50  52 W6        30.09F
MEDICINE HAT   MOSUNNY   70  54  56 NW12      30.03R
WATERTON GATE    N/A     68  50  52 NE1         N/A
CARDSTON         N/A     66  50  55 W3          N/A
MILK RIVER       N/A     68  55  64 NW10        N/A
$$

REGIONAL REPORTS...SASKATCHEWAN

CITY           SKY/WX    TMP DP  RH WIND       PRES   REMARKS
SWIFT CURRENT  PTSUNNY   70  52  52 W15G22    29.93R
REGINA         MOSUNNY   75  59  57 S17       29.94F
SASKATOON      PTSUNNY   68  61  77 VRB2      29.86R
ASSINIBOIA       N/A     63  55  77 W5          N/A
$$




USA.gov is the U.S. government's official web portal to all federal, state and local government web resources and services.